Location: Cerezo de Arriba
(41.2389°N, 3.5585°W)
Time: 04:01:24
(UTC+00:00)

Cosmos 1605 Rocket - Pass Details

Date: 19 May 2025
Orbit: 943 x 1005 km, 82.9° (Epoch: 23 June)

Event Time Altitude Azimuth Distance (km) Brightness Sun altitude
Rises 23:25:58 0° 354° (N) 3,720 8.3 -27.9°
Reaches altitude 10° 23:28:32 10° 357° (N) 2,760 7.3 -28.0°
Maximum altitude 23:34:51 71° 81° (E) 1,036 4.0 -28.2°
Enters shadow 23:35:17 68° 110° (ESE) 1,049 3.9 -28.2°
